Weather Roundup
Issued by NWS Corpus Christi, TX

Home | Current Version | Previous Version | Text Only | Print | Product List | Glossary On
Versions: 1 2 3 4 5 6 7 8 9 10 11 12 13 14 15 16 17 18 19 20 21 22 23 24 25 26 27 28 29 30 31 32 33 34 35 36 37 38 39 40 41 42 43 44 45 46 47 48 49 50
000
ASUS44 KCRP 041310
HRRCRP

SOUTH TEXAS REGIONAL WEATHER ROUNDUP
NATIONAL WEATHER SERVICE CORPUS CHRISTI TX
700 AM CST SUN DEC 04 2016


TXZ229>244-041400-
...CORPUS CHRISTI AREA OBSERVATIONS...

CITY           SKY/WX    TMP DP  RH WIND       PRES   REMARKS
CORPUS CHRISTI TSTM      56  55  97 NW18      29.89R
NAS CORPUS CHR CLOUDY    58  58 100 NE21G28   29.82F
ROCKPORT         N/A    N/A N/A N/A MISG      29.84F
KINGSVILLE NAS CLOUDY    56  56 100 N13       29.86R
ALICE          HVY RAIN  53  53 100 N13       29.86F FOG
ORANGE GROVE   HVY RAIN  53  53 100 N13       29.90R FOG
FALFURRIAS     CLOUDY    56  55  96 N7        29.85S
$$

...VICTORIA AREA OBSERVATIONS...

CITY           SKY/WX    TMP DP  RH WIND       PRES   REMARKS
VICTORIA       HVY RAIN  52  51  97 N10       29.91R FOG
BEEVILLE       RAIN      46  46 100 NE13G21   29.88F
PLEASANTON     LGT RAIN  52  51  96 N6        29.93S
SAN ANTONIO    CLOUDY    52  48  86 NE9       29.93S
$$

...LAREDO AREA OBSERVATIONS...

CITY           SKY/WX    TMP DP  RH WIND       PRES   REMARKS
LAREDO         RAIN      54  53  97 N10       29.92R
COTULLA        LGT RAIN  55  52  89 N7        29.92F
DEL RIO        CLOUDY    51  48  89 NW14      29.95S
MCALLEN        LGT RAIN  60  57  89 N12       29.85R FOG
HEBBRONVILLE   LGT RAIN  53  52  97 N16       29.87F
$$

...OTHER TEXAS OBSERVATIONS...

CITY           SKY/WX    TMP DP  RH WIND       PRES   REMARKS
BROWNSVILLE    CLOUDY    63  62  97 N9        29.81R
HOUSTON        HVY RAIN  51  50  96 N8        29.95S FOG
COL. STATION   LGT RAIN  50  49  96 N9        29.97R
AUSTIN         LGT RAIN  51  49  92 N12       29.95S
WACO           CLOUDY    48  48 100 N8        30.00R
FORT WORTH     CLOUDY    48  45  89 N9        30.01R
WICHITA FALLS  CLOUDY    45  43  93 N8        30.05R
LUBBOCK        CLOUDY    41  38  89 N13       30.06R
EL PASO        CLEAR     39  33  79 N7        30.03R
$$

...MARINE OBSERVATIONS...

STATION/POSITION TIME  SKY/WX   TEMP    WIND        PRES    VSBY  WAVE   SWELL
                                AIR SEA DIR/SP/G                  HT/PER HT/PER
                 (UTC)          (F)     (DEG/KT/KT) (MB)    (MI)  (FT/S) (FT/S)
PORT ARANSAS     1200            57 67   10/ 20/ 23 1010.2F
BUOY 90 E PORT A 1250            71 77   20/ 16/ 19 1010.2R         6/ 8   3/ 8
BUOY 45 SE BAFFI 1250            69 75   10/ 23/ 27 1007.9S         6/ 7
BUOY 200 E PT IS 1250            78 78  150/ 12/ 14 1010.4S         6/ 8   5/ 8
BUOY 15 E GALVES 1250            58 68  320/ 19/ 25 1012.3R         4/ 7   3/ 7
$$



USA.gov is the U.S. government's official web portal to all federal, state and local government web resources and services.